This demonstration page uses our WeatherBlox Daily Observations layout. Learn more.

40.92945, -100.16068

Hourly Observations for August 3, 2017

Temp ( °F °C ) Dew Point ( °F °C ) Humidity (%) Winds ( mph kmh ) Pressure ( in mb ) Visibility ( mi km ) Precip ( " mm )
12:15 am 00:15 Mostly Cloudy 68 20 64 17.6 86 86 S 5 7 30.06 1018 10 16.09344 0 0
12:35 am 00:35 Partly Cloudy with Nearby Thunderstorms 67 19.4 62 16.7 84 84 S 5 7 30.06 1018 10 16.09344 0 0
12:55 am 00:55 Partly Cloudy with Thunderstorms 65 18.4 61 16.3 88 88 SW 3 6 30.03 1017 10 16.09344 0 0
1:15 am 01:15 Clear with Nearby Thunderstorms 65 18.2 62 16.6 90 90 Calm 30.03 1017 10 16.09344 0 0
1:35 am 01:35 Clear 65 18.1 62 16.7 92 92 N 8 13 30.06 1018 10 16.09344 0 0
1:55 am 01:55 Mostly Cloudy 65 18.3 62 16.7 90 90 Calm 30.06 1018 10 16.09344 0 0
2:15 am 02:15 Cloudy 65 18.3 62 16.5 89 89 N 3 6 30.09 1019 10 16.09344 0 0
2:35 am 02:35 Cloudy 65 18.6 61 16.2 86 86 N 6 9 30.06 1018 10 16.09344 0 0
2:55 am 02:55 Cloudy 65 18.6 61 16 85 85 N 9 15 30.06 1018 10 16.09344 0 0
3:15 am 03:15 Cloudy 65 18.6 59 14.9 79 79 N 14 22 30.06 1018 10 16.09344 0 0
3:35 am 03:35 Cloudy 64 17.6 57 14.1 80 80 N 9 15 30.12 1020 10 16.09344 0 0
3:55 am 03:55 Mostly Cloudy 63 17 58 14.2 84 84 N 9 15 30.12 1020 10 16.09344 0 0
4:15 am 04:15 Partly Cloudy 62 16.5 56 13.6 83 83 N 14 22 30.12 1020 10 16.09344 0 0
4:35 am 04:35 Clear 61 16 55 12.9 82 82 N 16 26 30.12 1020 10 16.09344 0 0
4:55 am 04:55 Clear 60 15.6 54 12.4 81 81 N 12 19 30.12 1020 10 16.09344 0 0
5:15 am 05:15 Clear 59 15.2 54 12.3 83 83 NNW 7 11 30.12 1020 10 16.09344 0 0
5:35 am 05:35 Partly Cloudy 59 15 54 12.1 83 83 N 7 11 30.12 1020 10 16.09344 0 0
5:55 am 05:55 Partly Cloudy 58 14.5 54 12 85 85 NNW 7 11 30.15 1021 10 16.09344 0 0
6:15 am 06:15 Clear 58 14.3 53 11.8 85 85 NNW 6 9 30.18 1022 10 16.09344 0 0
6:35 am 06:35 Clear 57 13.8 53 11.7 87 87 NNW 6 9 30.18 1022 10 16.09344 0 0
6:55 am 06:55 Sunny 56 13.5 53 11.7 89 89 NNW 6 9 30.18 1022 10 16.09344 0 0
7:15 am 07:15 Sunny 57 13.7 53 11.9 89 89 NW 6 9 30.18 1022 10 16.09344 0 0
7:35 am 07:35 Sunny 57 14 54 12.1 88 88 NW 7 11 30.18 1022 10 16.09344 0 0
7:55 am 07:55 Sunny 58 14.5 54 12.2 86 86 NNW 5 7 30.18 1022 10 16.09344 0 0
8:15 am 08:15 Sunny 60 15.3 54 12.1 81 81 NNW 6 9 30.15 1021 10 16.09344 0 0
8:35 am 08:35 Sunny 61 16 54 12.2 78 78 N 8 13 30.15 1021 10 16.09344 0 0
8:55 am 08:55 Sunny 63 17 54 12.3 74 74 N 9 15 30.15 1021 10 16.09344 0 0
9:15 am 09:15 Sunny 64 17.5 54 12 70 70 N 14 22 30.15 1021 10 16.09344 0 0
9:35 am 09:35 Partly Cloudy 64 17.5 53 11.9 70 70 N 14 22 30.15 1021 10 16.09344 0 0
9:55 am 09:55 Sunny 65 18.6 55 12.5 68 68 N 8 13 30.12 1020 10 16.09344 0 0
10:15 am 10:15 Sunny 66 19 53 11.8 63 63 N 15 24 30.12 1020 10 16.09344 0 0
10:35 am 10:35 Sunny 67 19.7 54 12.1 62 62 N 12 19 30.12 1020 10 16.09344 0 0
10:55 am 10:55 Partly Cloudy 69 20.5 54 12.4 60 60 N 10 17 30.15 1021 10 16.09344 0 0
11:15 am 11:15 Partly Cloudy 69 20.5 53 11.9 58 58 NNW 14 22 30.15 1021 10 16.09344 0 0
11:35 am 11:35 Partly Cloudy 70 21.3 53 11.7 54 54 N 14 22 30.12 1020 10 16.09344 0 0
11:55 am 11:55 Sunny 71 21.7 53 11.9 54 54 NNW 12 19 30.09 1019 10 16.09344 0 0
12:15 pm 12:15 Partly Cloudy 71 21.5 53 11.6 53 53 NNW 9 15 30.12 1020 10 16.09344 0 0
12:35 pm 12:35 Sunny 71 21.6 53 11.4 52 52 WNW 8 13 30.12 1020 10 16.09344 0 0
12:55 pm 12:55 Partly Cloudy 71 21.9 54 12 54 54 NNW 10 17 30.09 1019 10 16.09344 0 0
1:15 pm 13:15 Partly Cloudy 73 22.9 53 11.5 49 49 NW 14 22 30.09 1019 10 16.09344 0 0
1:35 pm 13:35 Sunny 74 23.5 51 10.7 45 45 NNW 14 22 30.09 1019 10 16.09344 0 0
1:55 pm 13:55 Partly Cloudy 75 24.1 49 9.5 40 40 NNW 18 30 30.06 1018 10 16.09344 0 0
2:15 pm 14:15 Partly Cloudy 75 24.1 47 8.5 37 37 NW 16 26 30.06 1018 10 16.09344 0 0
2:35 pm 14:35 Mostly Cloudy 75 24.1 48 9.1 39 39 NNW 14 22 30.06 1018 10 16.09344 0 0
2:55 pm 14:55 Partly Cloudy 74 23.6 49 9.5 41 41 NNW 13 20 30.06 1018 10 16.09344 0 0
3:15 pm 15:15 Partly Cloudy 74 23.4 50 10.1 43 43 NNW 9 15 30.06 1018 10 16.09344 0 0
3:35 pm 15:35 Partly Cloudy 77 24.8 48 9 37 37 NW 12 19 30.06 1018 10 16.09344 0 0
3:55 pm 15:55 Mostly Cloudy 78 25.3 48 9.1 36 36 NNW 13 20 30.03 1017 10 16.09344 0 0
4:15 pm 16:15 Mostly Cloudy 76 24.7 48 8.8 36 36 NNW 9 15 30.06 1018 10 16.09344 0 0
4:35 pm 16:35 Mostly Cloudy 75 23.9 48 8.7 38 38 NNW 8 13 30.06 1018 10 16.09344 0 0
4:55 pm 16:55 Mostly Cloudy 77 24.9 47 8.6 36 36 N 12 19 30.03 1017 10 16.09344 0 0
5:15 pm 17:15 Partly Cloudy 77 25.1 48 9 36 36 N 12 19 30.03 1017 10 16.09344 0 0
5:35 pm 17:35 Partly Cloudy 76 24.7 49 9.3 38 38 NNE 15 24 30.06 1018 10 16.09344 0 0
5:55 pm 17:55 Sunny 73 22.9 51 10.5 46 46 N 15 24 30.06 1018 10 16.09344 0 0
6:15 pm 18:15 Sunny 73 23 51 10.4 45 45 N 13 20 30.06 1018 10 16.09344 0 0
6:35 pm 18:35 Sunny 72 22.2 50 10.1 46 46 NNE 13 20 30.06 1018 10 16.09344 0 0
6:55 pm 18:55 Sunny 71 21.6 50 9.9 47 47 N 14 22 30.06 1018 10 16.09344 0 0
7:15 pm 19:15 Sunny 70 21 49 9.7 49 49 N 14 22 30.09 1019 10 16.09344 0 0
7:35 pm 19:35 Sunny 69 20.5 49 9.7 50 50 N 10 17 30.09 1019 10 16.09344 0 0
7:55 pm 19:55 Sunny 68 19.8 49 9.6 52 52 NNE 10 17 30.09 1019 10 16.09344 0 0
8:15 pm 20:15 Sunny 66 18.9 50 10 56 56 N 5 7 30.12 1020 10 16.09344 0 0
8:35 pm 20:35 Sunny 64 17.5 51 10.7 65 65 N 6 9 30.15 1021 10 16.09344 0 0
8:55 pm 20:55 Clear 62 16.5 52 11.1 71 71 N 5 7 30.15 1021 10 16.09344 0 0
9:15 pm 21:15 Clear 60 15.8 53 11.6 76 76 N 3 6 30.15 1021 10 16.09344 0 0
9:35 pm 21:35 Clear 60 15.5 53 11.4 77 77 N 3 6 30.15 1021 10 16.09344 0 0
9:55 pm 21:55 Partly Cloudy 60 15.6 52 11.1 75 75 N 5 7 30.18 1022 10 16.09344 0 0
10:15 pm 22:15 Clear 58 14.7 52 10.9 78 78 NNE 8 13 30.21 1023 10 16.09344 0 0
10:35 pm 22:35 Partly Cloudy 58 14.4 51 10.8 79 79 NE 6 9 30.21 1023 10 16.09344 0 0
10:55 pm 22:55 Clear 56 13.5 52 10.9 84 84 NE 5 7 30.21 1023 10 16.09344 0 0
11:15 pm 23:15 Clear 56 13.2 52 10.9 86 86 NE 5 7 30.21 1023 10 16.09344 0 0
11:35 pm 23:35 Clear 55 12.8 51 10.7 87 87 NE 3 6 30.21 1023 10 16.09344 0 0
11:55 pm 23:55 Clear 55 12.6 51 10.6 88 88 NNE 3 6 30.21 1023 10 16.09344 0 0

Powered by AerisWeather